[[{"header":{"parameterUnit":"m.s-1","parameterCategory":1,"la1":30.2991,"la2":30.254,"lo1":-89.0895,"lo2":-89.0444,"dy":0.0017,"dx":0.0017,"nx":28,"ny":28,"refTime":"2023-08-17T09:00:00:Z","depth":0,"parameterNumber":2,"parameterNumberName":"U-component_of_WINDS"},"data":[0,0,0,0,0,0,0,0,0,0,0,0,0,0,0,0,0,0,0,0,0,0,0,0,0,0,0,0,0,0,0,0,0,0,0,0,0,0,0,0,0,0,0,0,0,0,0,0,0,0,0,0,0,0,0,0,0,0,0.0713,0.0712,0,0.0638,0.0638,0.0637,0.0542,0.0541,0.0539,0.0538,0.0462,0.0462,0.0461,0,0,0,0,0,0,0,0,0,0,0,0,0,0.0772,0.0772,0.0713,0.0712,0.0711,0.0639,0.0638,0.0636,0.0542,0.0541,0.0539,0.0537,0.0462,0.0462,0.0461,0,0,0,0,0,0,0,0,0,0,0,0,0,0.0727,0.0772,0.0713,0.0655,0.0649,0.0639,0.0637,0.0636,0.0543,0.0541,0.0538,0.0536,0.0463,0.0462,0.0461,0.0501,0,0,0.0458,0.0458,0,0,0,0,0,0,0,0,0.073,0.0725,0.0664,0.0659,0.0652,0.0597,0.0631,0.0591,0.0543,0.0583,0.0538,0.0535,0.0509,0.0504,0.0495,0.0498,0.0495,0.0458,0.0458,0.0457,0.0457,0,0,0,0,0,0,0,0.0733,0.0728,0.0683,0.0664,0.0656,0.0633,0.0624,0.0623,0.056,0.058,0.0573,0.0565,0.0505,0.0496,0.0493,0.0493,0.0458,0.0457,0.0457,0.0457,0.0525,0.0527,0,0,0,0,0,0,0.0745,0.0731,0.0686,0.0681,0.0686,0.0634,0.0624,0.0617,0.056,0.0549,0.0567,0.0561,0.0499,0.0494,0.049,0.0534,0.0457,0.0456,0.0456,0.0523,0.0525,0.0528,0,0,0,0,0,0,0.0747,0.0742,0.0689,0.0704,0.0695,0.0635,0.0629,0.0617,0.0608,0.055,0.0538,0.057,0.0497,0.0491,0.0499,0.053,0.0456,0.0455,0.052,0.0523,0.0527,0.0622,0,0,0,0,0,0,0.0749,0.0743,0.0758,0.0705,0.0695,0.07,0.063,0.0617,0.0607,0.0598,0.0549,0.0539,0.0495,0.0501,0.0498,0.0527,0.0455,0.0517,0.0521,0.0526,0.0615,0.0628,0.0638,0,0,0,0,0,0.0751,0.0788,0.0759,0.0754,0.0712,0.0702,0.0696,0.0644,0.061,0.0624,0.0587,0.0541,0.0526,0.0503,0.0499,0.0528,0.0515,0.052,0.0525,0.061,0.0625,0.0638,0,0,0,0,0,0,0.0846,0.078,0.0747,0.0768,0.0741,0.0686,0.0702,0.0661,0.0644,0.0636,0.0572,0.0562,0.0578,0.0553,0.0528,0.0564,0.0514,0.0518,0.058,0.0594,0.0605,0.0611,0.0454,0,0,0,0,0,0.0869,0.0866,0.0808,0.0832,0.082,0.0764,0.0757,0.0719,0.0689,0.0677,0.064,0.0613,0.0601,0.0596,0.0582,0.0611,0.0599,0.0629,0.064,0.065,0.0655,0.0668,0.0681,0.0545,0.0545,0.0545,0,0,0.0918,0.0881,0.0883,0.085,0.0825,0.0823,0.0755,0.0756,0.0754,0.0677,0.0683,0.0655,0.0619,0.0638,0.0644,0.0617,0.069,0.0657,0.0665,0.0665,0.0675,0.0688,0.07,0.0549,0.0548,0.0548,0,0,0.1005,0.0977,0.0993,0.0969,0.0931,0.0893,0.0898,0.0848,0.0826,0.0831,0.0773,0.0769,0.0752,0.0729,0.0716,0.0793,0.075,0.079,0.0851,0.0865,0.0875,0.0884,0.0913,0.0924,0.0795,0.0796,0.0796,0,0.107,0.1065,0.1007,0.1011,0.0999,0.0928,0.0945,0.0924,0.0885,0.0877,0.0848,0.0824,0.0795,0.0808,0.0827,0.0817,0.082,0.0796,0.0878,0.0887,0.0895,0.0921,0.0932,0.0801,0.08,0.08,0.0799,0,0.1147,0.1144,0.1162,0.1125,0.1114,0.1124,0.1068,0.1064,0.1027,0.0992,0.0997,0.096,0.0938,0.0937,0.0901,0.0944,0.0929,0.089,0.0839,0.0914,0.0937,0.0947,0.0808,0.0806,0.0805,0.0803,0,0,0.1293,0.1224,0.1231,0.1214,0.1166,0.1163,0.117,0.1148,0.1146,0.112,0.1125,0.1111,0.1074,0.1058,0.1019,0.103,0.1095,0.0989,0.0987,0.1011,0.1141,0.1171,0.1184,0.1065,0.1067,0.1068,0.1144,0,0.1373,0.1381,0.1329,0.1351,0.1348,0.128,0.1286,0.1258,0.1225,0.1217,0.1181,0.1173,0.1124,0.1114,0.1123,0.1085,0.112,0.1079,0.1069,0.107,0.1082,0.1196,0.1229,0.1302,0.1153,0.1154,0.1155,0,0.1467,0.1446,0.1468,0.1419,0.1416,0.1422,0.1398,0.1391,0.1357,0.1332,0.1315,0.1269,0.1272,0.1222,0.1226,0.1199,0.1191,0.1172,0.1174,0.1172,0.1118,0.1199,0.1324,0.1336,0.1169,0.1168,0.1167,0,0.1573,0.155,0.156,0.1547,0.149,0.1496,0.1473,0.1436,0.1426,0.1405,0.1398,0.1377,0.1366,0.1351,0.13,0.1269,0.131,0.1256,0.129,0.1292,0.1303,0.1303,0.1431,0.1297,0.1297,0.1296,0.1296,0,0.1668,0.1684,0.1607,0.1614,0.163,0.1569,0.1587,0.1557,0.1525,0.1524,0.1464,0.1465,0.1397,0.139,0.135,0.136,0.1355,0.1335,0.1325,0.1342,0.1344,0.1337,0.1331,0.1299,0.1298,0.1298,0.1297,0,0.179,0.1739,0.1746,0.1691,0.1677,0.1692,0.1644,0.1648,0.1611,0.1611,0.1607,0.1549,0.1538,0.1485,0.1462,0.1435,0.1458,0.1436,0.147,0.1463,0.1501,0.1499,0.1629,0.1643,0.15,0.1501,0.1502,0,0.1854,0.1865,0.1811,0.1806,0.1786,0.1778,0.1768,0.1708,0.1699,0.1661,0.167,0.1653,0.1637,0.1622,0.1578,0.1559,0.1537,0.1584,0.1534,0.1551,0.1539,0.154,0.1541,0.1596,0.1597,0.1599,0.16,0,0.1975,0.1949,0.1936,0.1914,0.1903,0.1883,0.1859,0.1858,0.1792,0.1785,0.1773,0.176,0.1736,0.172,0.1694,0.1669,0.1624,0.1616,0.1623,0.1641,0.166,0.1651,0.1501,0.1614,0.1612,0.1611,0.1611,0.161,0.207,0.2077,0.204,0.2027,0.2003,0.1982,0.1983,0.1945,0.1934,0.1909,0.1874,0.1867,0.1831,0.1791,0.177,0.1763,0.1738,0.1748,0.1751,0.1754,0.1763,0.166,0.1758,0.1758,0.1757,0.1757,0.1757,0,0.2189,0.2161,0.215,0.2118,0.2109,0.2065,0.2037,0.2032,0.2025,0.1996,0.1981,0.1967,0.1952,0.1906,0.1886,0.1889,0.1868,0.1886,0.1886,0.1881,0.1787,0.1783,0.1903,0.1903,0.1903,0.1903,0.1903,0.1903,0.2249,0.2258,0.2227,0.2223,0.2195,0.2187,0.2175,0.2155,0.2131,0.2118,0.2105,0.2075,0.2039,0.2015,0.1999,0.1986,0.1982,0.2007,0.1988,0.1901,0.1887,0.1874,0.187,0.2007,0.2007,0.2082,0.2083,0.2083]},{"header":{"parameterUnit":"m.s-1","parameterCategory":1,"la1":30.2991,"la2":30.254,"lo1":-89.0895,"lo2":-89.0444,"dy":0.0017,"dx":0.0017,"nx":28,"ny":28,"refTime":"2023-08-17T09:00:00:Z","depth":0,"parameterNumber":3,"parameterNumberName":"V-component_of_WINDS"},"data":[0,0,0,0,0,0,0,0,0,0,0,0,0,0,0,0,0,0,0,0,0,0,0,0,0,0,0,0,0,0,0,0,0,0,0,0,0,0,0,0,0,0,0,0,0,0,0,0,0,0,0,0,0,0,0,0,0,0,-1.1965,-1.1967,0,-1.2085,-1.2086,-1.2088,-1.2172,-1.2172,-1.2173,-1.2174,-1.2297,-1.23,-1.2302,0,0,0,0,0,0,0,0,0,0,0,0,0,-1.1811,-1.1813,-1.1965,-1.1967,-1.1968,-1.2085,-1.2086,-1.2088,-1.2172,-1.2172,-1.2173,-1.2174,-1.2296,-1.2299,-1.2302,0,0,0,0,0,0,0,0,0,0,0,0,0,-1.1899,-1.1814,-1.1965,-1.2024,-1.203,-1.2084,-1.2086,-1.2089,-1.2171,-1.2172,-1.2173,-1.2174,-1.2295,-1.2299,-1.2303,-1.2308,0,0,-1.2315,-1.2317,0,0,0,0,0,0,0,0,-1.1894,-1.1904,-1.2014,-1.202,-1.2027,-1.2114,-1.2077,-1.2162,-1.2171,-1.2118,-1.2174,-1.2175,-1.2235,-1.2244,-1.2265,-1.2314,-1.2319,-1.2316,-1.2318,-1.232,-1.2321,0,0,0,0,0,0,0,-1.1887,-1.19,-1.2013,-1.2015,-1.2023,-1.2045,-1.2059,-1.2094,-1.217,-1.2123,-1.2129,-1.2142,-1.2239,-1.2261,-1.2268,-1.2321,-1.2315,-1.2319,-1.2321,-1.2323,-1.2382,-1.2381,0,0,0,0,0,0,-1.1872,-1.1894,-1.2009,-1.2016,-1.1961,-1.2047,-1.2062,-1.2085,-1.217,-1.2183,-1.2141,-1.2145,-1.2253,-1.2264,-1.2273,-1.2285,-1.232,-1.2323,-1.2326,-1.2383,-1.2382,-1.2381,0,0,0,0,0,0,-1.1868,-1.1881,-1.2004,-1.1957,-1.1974,-1.2049,-1.2074,-1.2087,-1.2109,-1.2184,-1.2198,-1.2149,-1.2255,-1.2267,-1.2299,-1.2291,-1.2325,-1.2329,-1.2384,-1.2383,-1.2382,-1.2309,0,0,0,0,0,0,-1.1863,-1.188,-1.1882,-1.1956,-1.1976,-1.2027,-1.2074,-1.2089,-1.2115,-1.2122,-1.2194,-1.2207,-1.2256,-1.2293,-1.2303,-1.2297,-1.2332,-1.2385,-1.2384,-1.2382,-1.2312,-1.2305,-1.2299,0,0,0,0,0,-1.1858,-1.1856,-1.1881,-1.1895,-1.198,-1.2026,-1.2038,-1.2094,-1.2114,-1.2117,-1.2166,-1.2205,-1.229,-1.2295,-1.2308,-1.2302,-1.2386,-1.2384,-1.2382,-1.2315,-1.2307,-1.23,0,0,0,0,0,0,-1.1778,-1.1867,-1.1896,-1.1918,-1.1964,-1.204,-1.2046,-1.2083,-1.2124,-1.2129,-1.2197,-1.2213,-1.2238,-1.2274,-1.2278,-1.2313,-1.2343,-1.2343,-1.2288,-1.228,-1.2274,-1.2264,-1.2335,0,0,0,0,0,-1.1763,-1.1793,-1.1869,-1.1882,-1.1903,-1.197,-1.1993,-1.2032,-1.2082,-1.2102,-1.2153,-1.2201,-1.2239,-1.2262,-1.2301,-1.2319,-1.2336,-1.2322,-1.2315,-1.2309,-1.2309,-1.2322,-1.2316,-1.2375,-1.2375,-1.2375,0,0,-1.1733,-1.1785,-1.1799,-1.1867,-1.1907,-1.1937,-1.1986,-1.2015,-1.2038,-1.2107,-1.214,-1.2179,-1.2237,-1.2262,-1.2276,-1.2293,-1.2297,-1.2307,-1.2302,-1.2304,-1.2319,-1.2314,-1.2309,-1.2374,-1.2374,-1.2374,0,0,-1.1692,-1.1734,-1.175,-1.1789,-1.185,-1.1895,-1.1899,-1.197,-1.1998,-1.2033,-1.2085,-1.2114,-1.2178,-1.2217,-1.2245,-1.2222,-1.226,-1.2233,-1.2198,-1.221,-1.2205,-1.2202,-1.2193,-1.219,-1.2232,-1.2232,-1.2232,0,-1.1646,-1.1692,-1.1753,-1.1779,-1.1808,-1.1872,-1.1889,-1.1925,-1.1995,-1.2013,-1.2032,-1.2113,-1.2157,-1.2193,-1.2187,-1.2208,-1.2215,-1.2224,-1.2201,-1.2198,-1.2195,-1.2188,-1.2185,-1.2228,-1.2229,-1.2229,-1.2229,0,-1.1633,-1.1665,-1.167,-1.1736,-1.1766,-1.1787,-1.1852,-1.1874,-1.1912,-1.1955,-1.199,-1.2045,-1.2097,-1.2109,-1.2145,-1.215,-1.2159,-1.2188,-1.222,-1.2185,-1.218,-1.2177,-1.2223,-1.2224,-1.2225,-1.2226,0,0,-1.1543,-1.1644,-1.1645,-1.1676,-1.1749,-1.1775,-1.18,-1.185,-1.1868,-1.1915,-1.1938,-1.1991,-1.202,-1.2052,-1.2094,-1.2105,-1.2083,-1.2134,-1.2136,-1.2122,-1.2092,-1.2069,-1.2064,-1.2109,-1.2109,-1.2109,-1.2087,0,-1.1513,-1.156,-1.1617,-1.1645,-1.1675,-1.1738,-1.176,-1.1808,-1.1849,-1.1882,-1.1929,-1.1965,-1.2,-1.202,-1.2033,-1.2083,-1.2078,-1.2085,-1.2132,-1.2133,-1.2114,-1.2062,-1.2037,-1.2013,-1.2086,-1.2085,-1.2085,0,-1.1484,-1.1527,-1.1558,-1.163,-1.1644,-1.1663,-1.1714,-1.1745,-1.18,-1.183,-1.1867,-1.1913,-1.1943,-1.1972,-1.2015,-1.2019,-1.2042,-1.2069,-1.207,-1.2076,-1.2106,-1.2065,-1.2007,-1.2003,-1.2082,-1.2082,-1.2083,0,-1.1414,-1.1481,-1.1509,-1.1534,-1.1618,-1.1629,-1.1665,-1.1722,-1.1749,-1.1795,-1.1813,-1.1862,-1.1888,-1.1925,-1.1983,-1.1999,-1.202,-1.2054,-1.2046,-1.2045,-1.2047,-1.2046,-1.1991,-1.2063,-1.2063,-1.2063,-1.2063,0,-1.1374,-1.139,-1.1479,-1.1496,-1.1517,-1.1583,-1.1602,-1.1643,-1.1693,-1.172,-1.1778,-1.1802,-1.1878,-1.1911,-1.1957,-1.1986,-1.1998,-1.2023,-1.2035,-1.2018,-1.2014,-1.2032,-1.2035,-1.2062,-1.2062,-1.2062,-1.2062,0,-1.1299,-1.1359,-1.1394,-1.1471,-1.1491,-1.1503,-1.1569,-1.1588,-1.1635,-1.1668,-1.1679,-1.1752,-1.1794,-1.1856,-1.1917,-1.1948,-1.197,-1.199,-1.1951,-1.1958,-1.1947,-1.1947,-1.1901,-1.1899,-1.1972,-1.1971,-1.197,0,-1.1269,-1.1283,-1.1362,-1.1384,-1.1418,-1.1452,-1.1481,-1.1547,-1.1574,-1.164,-1.1651,-1.1698,-1.1739,-1.1804,-1.1863,-1.191,-1.1931,-1.1912,-1.1938,-1.1921,-1.193,-1.1928,-1.193,-1.1905,-1.1904,-1.1903,-1.1902,0,-1.1208,-1.1238,-1.1276,-1.1326,-1.1358,-1.14,-1.1445,-1.146,-1.1536,-1.1564,-1.1608,-1.164,-1.1703,-1.1749,-1.1805,-1.1843,-1.1885,-1.1894,-1.1894,-1.1876,-1.1853,-1.1865,-1.1933,-1.1894,-1.1895,-1.1895,-1.1896,-1.1896,-1.1155,-1.1171,-1.1229,-1.1271,-1.1312,-1.1353,-1.1375,-1.1424,-1.1462,-1.1518,-1.1555,-1.1597,-1.1655,-1.1734,-1.177,-1.1805,-1.1823,-1.1824,-1.1824,-1.1823,-1.1817,-1.1848,-1.1816,-1.1816,-1.1816,-1.1817,-1.1817,0,-1.1097,-1.1138,-1.1176,-1.1237,-1.127,-1.1308,-1.136,-1.1385,-1.1421,-1.1471,-1.1511,-1.1562,-1.1608,-1.167,-1.1721,-1.1737,-1.1757,-1.1748,-1.1747,-1.1755,-1.1798,-1.1792,-1.173,-1.173,-1.173,-1.173,-1.173,-1.173,-1.1071,-1.11,-1.1137,-1.1187,-1.1229,-1.127,-1.1297,-1.1336,-1.1376,-1.1431,-1.1469,-1.151,-1.1565,-1.1621,-1.1665,-1.1682,-1.1698,-1.1682,-1.1705,-1.1744,-1.1752,-1.1759,-1.1754,-1.1685,-1.1685,-1.1659,-1.1659,-1.1659]}]]